UAE245 FXMM-FAOR

Flight info

Callsign UAE245
Flight time N/A
Altitude 15000
Route MZV IMGEV UZ5 STV STV1D
Aircraft A333/H-VGD/A

Departure

Time 2026-05-08 15:50
Airport Moshoeshoe I International Airport (FXMM)

Arrival

Time N/A
Airport O.R. Tambo International Airport (FAOR)
Time Latitude Longitude Altitude Speed Heading
2026-05-08 15:45 -29.45907 27.55780 5370 ft 0 kts 12°
2026-05-08 15:46 -29.45906 27.55780 5370 ft 0 kts 12°
2026-05-08 15:46 -29.45891 27.55770 5370 ft 10 kts 324°
2026-05-08 15:46 -29.45842 27.55655 5370 ft 18 kts 285°
2026-05-08 15:46 -29.45899 27.55559 5368 ft 17 kts 194°
2026-05-08 15:47 -29.46016 27.55522 5367 ft 18 kts 193°
2026-05-08 15:47 -29.46142 27.55488 5364 ft 17 kts 202°
2026-05-08 15:47 -29.46211 27.55396 5360 ft 13 kts 253°
2026-05-08 15:47 -29.46215 27.55376 5360 ft 0 kts 260°
2026-05-08 15:48 -29.46282 27.55232 5353 ft 34 kts 196°
2026-05-08 15:48 -29.46599 27.55126 5348 ft 54 kts 190°
2026-05-08 15:48 -29.46899 27.55073 5346 ft 14 kts 158°
2026-05-08 15:49 -29.46926 27.55053 5347 ft 5 kts 323°
2026-05-08 15:49 -29.46830 27.55068 5346 ft 33 kts 14°
2026-05-08 15:49 -29.46335 27.55210 5352 ft 112 kts 19°
2026-05-08 15:49 -29.45349 27.55523 5365 ft 180 kts 15°
2026-05-08 15:50 -29.43970 27.55961 5650 ft 215 kts 14°
2026-05-08 15:50 -29.42628 27.56529 6820 ft 211 kts 18°
2026-05-08 15:50 -29.41187 27.57142 7722 ft 232 kts 16°
2026-05-08 15:50 -29.39627 27.57788 8761 ft 249 kts 20°
2026-05-08 15:51 -29.38039 27.58570 9888 ft 259 kts 17°
2026-05-08 15:51 -29.36296 27.59252 10731 ft 278 kts 20°
2026-05-08 15:51 -29.34473 27.60106 11748 ft 288 kts 16°
2026-05-08 15:51 -29.32622 27.60963 12820 ft 293 kts 18°
2026-05-08 15:52 -29.30786 27.61997 13860 ft 301 kts 23°
2026-05-08 15:52 -29.28979 27.63232 14929 ft 305 kts 25°
2026-05-08 15:52 -29.27096 27.64482 14964 ft 330 kts 25°
2026-05-08 15:52 -29.24984 27.65812 14959 ft 351 kts 24°
2026-05-08 15:53 -29.22809 27.67174 15024 ft 368 kts 25°
2026-05-08 15:53 -29.20481 27.68622 14963 ft 388 kts 24°
2026-05-08 15:53 -29.18293 27.69974 14986 ft 403 kts 25°